Location: Auckland
(36.8500°S, 174.7800°E)
Time: 20:53:59
(UTC+12:00)

ISS - Pass Details

Date: 19 March 2026
Orbit: 416 x 425 km, 51.6° (Epoch: 20 April)

Event Time Altitude Azimuth Distance (km) Brightness Sun altitude
Exits shadow 06:10:55 33° 279° (W) 733 -3.1 -15.0°
Maximum altitude 06:12:08 55° 218° (SW) 518 -3.5 -14.8°
Drops below altitude 10° 06:15:30 10° 139° (SE) 1,521 -0.1 -14.1°
Sets 06:17:39 0° 134° (SE) 2,393 1.1 -13.7°
